Weather History for KDRT - March, 2013

Change the Weather History Date:

Wednesday, March 13, 2013

  Actual Average Record
Temperature  
Mean Temperature 62 °F 63 °F  
Max Temperature 80 °F 75 °F 94 °F (1989)
Min Temperature 44 °F 52 °F 25 °F (1932)
Degree Days  
Heating Degree Days 3 4  
Month to date heating degree days 61 65  
Since 1 July heating degree days 954 1301  
Cooling Degree Days 0 2  
Month to date cooling degree days 26 24  
Year to date cooling degree days 65 43  
Growing Degree Days 14 (Base 50)    
Moisture  
Dew Point 34 °F    
Average Humidity 36    
Maximum Humidity 52    
Minimum Humidity 19    
Precipitation  
Precipitation 0.00 in 0.04 in 0.30 in (1994)
Month to date precipitation T 0.50  
Year to date precipitation 1.33 2.10  
Sea Level Pressure  
Sea Level Pressure 30.25 in    
Wind  
Wind Speed 7 mph (ESE)    
Max Wind Speed 18 mph    
Max Gust Speed 23 mph    
Visibility 10 miles    
Events      
T = Trace of Precipitation, MM = Missing Value Source: NWS Daily Summary

Daily Weather History Graph

Daily Weather History Graph

Search for Another Location

Airport or City:

Trip Planner

Search our weather history database for the weather conditions in past years. The results will help you decide how hot, cold, wet, or windy it might be!

Date:

Astronomy

Mar. 13, 2013 Rise Set
Actual Time 7:55 AM CDT 7:51 PM CDT
Civil Twilight 7:31 AM CDT 8:14 PM CDT
Nautical Twilight 7:04 AM CDT 8:42 PM CDT
Astronomical Twilight 6:36 AM CDT 9:10 PM CDT
Moon 8:48 AM CDT (3/13) 9:54 PM CDT (3/13)
Length of Visible Light 12h 43m
Length of Day
11h 55m
Waxing Crescent, 4% of the Moon is Illuminated
Mar 13
Waxing Crescent
Mar 19
First Quarter
Mar 27
Full
Apr 2
Last Quarter
Apr 10
New

Hourly Weather History & Observations

Time (CDT) Temp. Dew Point Humidity Pressure Visibility Wind Dir Wind Speed Gust Speed Precip Events Conditions
12:53 AM 63.0 °F 27.0 °F 26% 30.17 in 10.0 mi NNE 5.8 mph - N/A   Clear
1:53 AM 55.9 °F 27.0 °F 33% 30.19 in 10.0 mi Calm Calm - N/A   Clear
2:53 AM 52.0 °F 27.0 °F 38% 30.21 in 10.0 mi Calm Calm - N/A   Clear
3:53 AM 55.9 °F 28.0 °F 34% 30.21 in 10.0 mi Variable 3.5 mph - N/A   Clear
4:53 AM 53.1 °F 30.0 °F 41% 30.22 in 10.0 mi North 5.8 mph - N/A   Clear
5:53 AM 51.1 °F 32.0 °F 48% 30.23 in 10.0 mi NNW 3.5 mph - N/A   Clear
6:53 AM 50.0 °F 32.0 °F 50% 30.27 in 10.0 mi North 6.9 mph - N/A   Clear
7:53 AM 51.1 °F 34.0 °F 52% 30.29 in 10.0 mi NNE 3.5 mph - N/A   Clear
8:53 AM 50.0 °F 34.0 °F 54% 30.32 in 10.0 mi Calm Calm - N/A   Clear
9:53 AM 57.9 °F 37.0 °F 46% 30.36 in 10.0 mi ESE 4.6 mph - N/A   Clear
10:53 AM 61.0 °F 39.9 °F 46% 30.38 in 10.0 mi SSE 6.9 mph - N/A   Clear
11:53 AM 64.9 °F 39.9 °F 40% 30.37 in 10.0 mi SE 4.6 mph - N/A   Clear
12:53 PM 68.0 °F 39.0 °F 35% 30.35 in 10.0 mi Variable 3.5 mph - N/A   Clear
1:53 PM 72.0 °F 37.0 °F 28% 30.32 in 10.0 mi SE 8.1 mph - N/A   Clear
2:53 PM 75.0 °F 37.0 °F 25% 30.27 in 10.0 mi ESE 6.9 mph - N/A   Clear
3:53 PM 79.0 °F 36.0 °F 21% 30.24 in 10.0 mi SE 13.8 mph - N/A   Clear
4:53 PM 79.0 °F 34.0 °F 20% 30.21 in 10.0 mi SSE 13.8 mph 20.7 mph N/A   Clear
5:53 PM 79.0 °F 36.0 °F 21% 30.19 in 10.0 mi South 13.8 mph - N/A   Clear
6:53 PM 78.1 °F 36.0 °F 22% 30.19 in 10.0 mi SSE 12.7 mph - N/A   Clear
7:53 PM 75.0 °F 35.1 °F 23% 30.20 in 10.0 mi SE 9.2 mph - N/A   Clear
8:53 PM 72.0 °F 34.0 °F 25% 30.20 in 10.0 mi SE 8.1 mph - N/A   Clear
9:53 PM 70.0 °F 32.0 °F 25% 30.22 in 10.0 mi ESE 9.2 mph - N/A   Clear
10:53 PM 68.0 °F 33.1 °F 27% 30.23 in 10.0 mi ESE 10.4 mph - N/A   Clear
11:53 PM 66.9 °F 34.0 °F 30% 30.24 in 10.0 mi ESE 10.4 mph - N/A   Clear